1341273628258,58.0493
1341273688258,58.0716
1341273748258,58.3063
1341273808258,58.2537
1341273868258,58.0884
1341273928258,57.8600
1341273988258,57.6899
1341274048258,57.8460
1341274108258,58.1016
1341274168258,57.9409
1341274228258,57.6953
1341274288258,57.7024
1341274348258,57.6666
1341274408258,57.6493
1341274468258,57.5925
1341274528258,57.4736
1341274588258,57.2923
1341274648258,56.9967
1341274708258,57.1156
1341274768258,57.1229
1341274828258,57.1777
1341274888258,57.0121
1341274948258,56.9590
1341275008258,56.8418
1341275068258,56.8720
1341275128258,56.8498
1341275188258,56.7043
1341275248258,56.9557
1341275308258,56.8865
1341275368258,56.7323
1341275428258,56.7588
1341275488258,56.6452
1341275548258,56.6836
1341275608258,56.5924
1341275668258,56.6059
1341275728258,56.6589
1341275788258,56.5383
1341275848258,56.7372
1341275908258,56.5492
1341275968258,56.4851
1341276028258,56.6708
1341276088258,56.4268
1341276148258,56.6789
1341276208258,56.3731
1341276268258,56.5216
1341276328258,56.5734
1341276388258,56.4516
1341276448258,56.4070
1341276508258,56.3602
1341276568258,56.3505
1341276628258,56.1935
1341276688258,56.4021
1341276748258,56.3856
1341276808258,56.2876
1341276868258,56.4041
1341276928258,56.5525
1341276988258,56.4823
1341277048258,56.5744
1341277108258,56.4035
1341277168258,56.4296
1341277228268,56.3953
1341277288268,56.2986
1341277348268,56.3853
1341277408268,56.4240
1341277468268,56.4406
1341277528268,56.2638
1341277588268,56.2808
1341277648268,56.3086
1341277708268,56.1304
1341277768268,56.2030
1341277828268,56.2084
1341277888268,56.3048
1341277948268,56.2199
1341278008268,56.1604
1341278068268,56.1466
1341278128268,56.2136
1341278188268,56.4236
1341278248268,56.1801
1341278308268,56.2316
1341278368268,56.3742
1341278428268,56.2027
1341278488268,56.3499
1341278548268,56.3713
1341278608268,56.2972
1341278668268,56.4949
1341278728268,56.4323
1341278788268,56.3731
1341278848268,56.3829
1341278908268,56.3383
1341278968268,56.2865
1341279028268,56.1064
1341279088268,56.2695
1341279148268,56.1646
1341279208268,56.2271
1341279268268,56.2864
1341279328268,56.2378
1341279388268,56.1730
1341279448268,56.2263
1341279508268,56.2966
1341279568268,56.3384
1341279628268,56.4086
1341279688268,56.4207
1341279748268,56.4566
1341279808268,56.3370
1341279868268,56.2171
1341279928268,56.1925
1341279988268,56.3217
1341280048268,56.2643
1341280108268,56.3266
1341280168268,56.3309
1341280228268,56.0610
1341280288268,56.1954
1341280348268,56.0331
1341280408268,56.2029
1341280468268,56.0910
1341280528268,55.9167
1341280588268,56.2158
1341280648268,56.3031
1341280708268,56.1404
1341280768268,56.2384
1341280828278,56.1871
1341280888278,56.1472
1341280948278,56.0884
1341281008278,56.2966
1341281068278,56.1074
1341281128278,56.0672
1341281188278,56.1847
1341281248278,56.2996
1341281308278,56.1216
1341281368278,56.2062
1341281428278,56.3135
1341281488278,56.2391
1341281548278,56.2383
1341281608278,56.3037
1341281668278,56.1842
1341281728278,56.2963
1341281788278,56.3005
1341281848278,56.2652
1341281908278,56.2822
1341281968278,56.3806
1341282028278,56.1446
1341282088278,56.2553
1341282148278,56.3943
1341282208278,56.3317
1341282268278,56.2259
1341282328278,56.3626
1341282388278,56.4623
1341282448278,56.2985
1341282508278,56.4350
1341282568278,56.1737
1341282628278,56.3058
1341282688278,56.2824
1341282748278,56.4538
1341282808278,56.3033
1341282868278,56.2839
1341282928278,56.3877
1341282988278,56.6217
1341283048278,56.3278
1341283108278,56.3854
1341283168278,56.4364
1341283228278,56.5383
1341283288278,56.6433
1341283348278,56.7116
1341283408278,56.6590
1341283468278,56.7962
1341283528278,56.5661
1341283588278,56.6212
1341283648278,56.3959
1341283708278,56.5852
1341283768278,56.3959
1341283828278,56.5083
1341283888278,56.4855
1341283948278,56.4317
1341284008278,56.2818
1341284068278,56.3447
1341284128278,56.4797
1341284188278,56.4080
1341284248278,56.4380
1341284308278,56.2993
1341284368278,56.5540
1341284428288,56.6139
1341284488288,56.4280
1341284548288,56.4489
1341284608288,56.4502
1341284668288,56.4039
1341284728288,56.4861
1341284788288,56.3955
1341284848288,56.4187
1341284908288,56.4913
1341284968288,56.5450
1341285028288,56.5245
1341285088288,56.5488
1341285148288,56.5273
1341285208288,56.8510
1341285268288,56.7785
1341285328288,56.7350
1341285388288,56.6197
1341285448288,56.7773
1341285508288,56.9033
1341285568288,56.6038
1341285628288,56.8141
1341285688288,56.7474
1341285748288,56.9573
1341285808288,56.9266
1341285868288,56.8432
1341285928288,56.9244
1341285988288,56.8415
1341286048288,56.8240
1341286108288,56.9681
1341286168288,57.0280
1341286228288,57.0246
1341286288288,57.0900
1341286348288,56.9855
1341286408288,56.9411
1341286468288,57.0412
1341286528288,57.0054
1341286588288,57.0511
1341286648288,57.0543
1341286708288,57.1597
1341286768288,57.8910
1341286828288,57.8117
1341286888288,57.6723
1341286948288,57.6392
1341287008288,57.4573
1341287068288,57.3441
1341287128288,57.5667
1341287188288,57.5295
1341287248288,57.5895
1341287308288,57.8258
1341287368288,57.8097
1341287428288,57.7829
1341287488288,57.9772
1341287548288,57.9053
1341287608288,58.0942
1341287668288,58.0607
1341287728288,57.9190
1341287788288,57.6089
1341287848288,57.7767
1341287908288,57.4420
1341287968288,57.7248
1341288028297,57.3862
1341288088297,57.5092
1341288148297,57.4219
1341288208297,57.3200
1341288268297,57.2019
1341288328297,57.3573
1341288388297,57.1066
1341288448297,57.1629
1341288508297,57.3492
1341288568297,57.0636
1341288628297,57.2114
1341288688297,57.1440
1341288748297,57.2571
1341288808297,57.0883
1341288868297,57.2693
1341288928297,57.2226
1341288988297,57.1584
1341289048297,57.1898
1341289108297,57.1923
1341289168297,57.2439
1341289228297,57.2827
1341289288297,57.2194
1341289348297,57.0671
1341289408297,56.9756
1341289468297,57.0492
1341289528297,57.1081
1341289588297,57.0174
1341289648297,57.0712
1341289708297,57.0865
1341289768297,57.0399
1341289828297,57.0228
1341289888297,57.1110
1341289948297,57.1106
1341290008297,57.1320
1341290068297,57.0396
1341290128297,57.1020
1341290188297,56.9380
1341290248297,57.0318
1341290308297,56.9456
1341290368297,57.1437
1341290428297,57.1248
1341290488297,57.0573
1341290548297,57.0861
1341290608297,56.9469
1341290668297,57.2865
1341290728297,57.1004
1341290788297,57.1595
1341290848297,56.9784
1341290908297,57.1170
1341290968297,57.3175
1341291028297,57.1470
1341291088297,57.1825
1341291148297,57.1924
1341291208297,57.1914
1341291268297,57.2640
1341291328297,57.1834
1341291388297,57.1988
1341291448297,57.2160
1341291508297,57.1906
1341291568297,57.2030
1341291628306,57.2714
1341291688306,57.1359
1341291748306,57.1332
1341291808306,57.2162
1341291868306,57.1348
1341291928306,57.2753
1341291988306,57.2737
1341292048306,57.1154
1341292108306,57.2705
1341292168306,57.1057
1341292228306,57.2092
1341292288306,57.1645
1341292348306,57.2542
1341292408306,57.4267
1341292468306,57.2093
1341292528306,57.2844
1341292588306,57.2941
1341292648306,57.2826
1341292708306,57.1046
1341292768306,56.9939
1341292828306,57.2251
1341292888306,57.3274
1341292948306,57.1256
1341293008306,57.1846
1341293068306,57.2281
1341293128306,57.2171
1341293188306,57.3019
1341293248306,57.0649
1341293308306,57.2709
1341293368306,57.0360
1341293428306,57.2784
1341293488306,57.3202
1341293548306,57.1807
1341293608306,57.0995
1341293668306,57.0248
1341293728306,56.9602
1341293788306,57.1071
1341293848306,57.0885
1341293908306,57.1116
1341293968306,57.1068
1341294028306,57.0690
1341294088306,57.1487
1341294148306,57.1957
1341294208306,57.0206
1341294268306,57.2392
1341294328306,57.1405
1341294388306,57.2064
1341294448306,57.0960
1341294508306,57.0547
1341294568306,56.9997
1341294628306,57.0977
1341294688306,56.9731
1341294748306,57.1276
1341294808306,56.9499
1341294868306,56.7710
1341294928306,56.8916
1341294988306,57.0034
1341295048306,57.1842
1341295108306,56.9331
1341295168306,57.0653
1341295228315,57.1585
1341295288315,56.9811
1341295348315,57.2515
1341295408315,57.1295
1341295468315,57.0097
1341295528315,56.8616
1341295588315,57.1129
1341295648315,57.1073
1341295708315,57.2661
1341295768315,57.2799
1341295828315,57.2097
1341295888315,57.2402
1341295948315,57.2825
1341296008315,57.2223
1341296068315,56.8556
1341296128315,56.9175
1341296188315,56.9905
1341296248315,57.0300
1341296308315,56.9643
1341296368315,56.7536
1341296428315,56.9616
1341296488315,56.9883
1341296548315,56.9723
1341296608315,56.9656
1341296668315,56.9849
1341296728315,57.1579
1341296788315,56.8463
1341296848315,56.8379
1341296908315,56.8528
1341296968315,56.9547
1341297028315,56.7929
1341297088315,56.8868
1341297148315,57.1040
1341297208315,56.8315
1341297268315,57.1286
1341297328315,56.9088
1341297388315,57.0690
1341297448315,57.1210
1341297508315,57.1224
1341297568315,57.1441
1341297628315,57.3081
1341297688315,57.1962
1341297748315,57.2526
1341297808315,57.1390
1341297868315,57.2069
1341297928315,57.1395
1341297988315,56.9502
1341298048315,57.1592
1341298108315,57.1837
1341298168315,57.1689
1341298228315,57.0867
1341298288315,57.1116
1341298348315,57.4193
1341298408315,57.2792
1341298468315,57.2131
1341298528315,57.1838
1341298588315,57.3435
1341298648315,57.1680
1341298708315,57.0196
1341298768315,57.2670
1341298828324,57.1202
1341298888324,57.1155
1341298948324,57.2109
1341299008324,57.2214
1341299068324,57.1963
1341299128324,57.3216
1341299188324,57.2639
1341299248324,57.2081
1341299308324,57.2591
1341299368324,57.2039
1341299428324,57.1414
1341299488324,57.1562
1341299548324,57.2015
1341299608324,57.1267
1341299668324,56.9658
1341299728324,57.1942
1341299788324,57.1836
1341299848324,57.1506
1341299908324,56.8835
1341299968324,56.9490
1341300028324,57.1729
1341300088324,56.9096
1341300148324,57.0178
1341300208324,56.9539
1341300268324,57.1037
1341300328324,57.2046
1341300388324,57.1536
1341300448324,57.0799
1341300508324,57.0307
1341300568324,57.0078
1341300628324,57.0958
1341300688324,56.9292
1341300748324,57.1046
1341300808324,57.0382
1341300868324,56.9505
1341300928324,57.1187
1341300988324,56.9762
1341301048324,56.9278
1341301108324,57.1969
1341301168324,56.9982
1341301228324,57.0178
1341301288324,57.2101
1341301348324,57.1523
1341301408324,57.0824
1341301468324,57.1353
1341301528324,57.0858
1341301588324,56.9761
1341301648324,57.0977
1341301708324,56.9630
1341301768324,56.9483
1341301828324,57.0131
1341301888324,56.9248
1341301948324,56.9660
1341302008324,56.8392
1341302068324,57.0149
1341302128324,56.9303
1341302188324,56.8724
1341302248324,56.9739
1341302308324,57.0461
1341302368324,57.0316
1341302428333,56.9802
1341302488333,57.2326
1341302548333,56.9782
1341302608333,57.1554
1341302668334,57.2023
1341302728334,57.2661
1341302788334,57.1441
1341302848334,57.1140
1341302908334,57.1408
1341302968334,56.9369
1341303028334,57.2692
1341303088334,57.2068
1341303148334,57.3399
1341303208334,57.3381
1341303268334,57.1837
1341303328334,57.0515
1341303388334,57.0331
1341303448334,57.2816
1341303508334,57.4498
1341303568334,57.4274
1341303628334,57.4927
1341303688334,57.5658
1341303748333,57.3712
1341303808333,57.6146
1341303868333,57.2269
1341303928333,57.3402
1341303988334,57.5966
1341304048334,57.3983
1341304108334,57.4402
1341304168334,57.5273
1341304228334,57.6291
1341304288334,57.6294
1341304348334,57.5997
1341304408334,57.6069
1341304468334,57.7556
1341304528334,57.5536
1341304588334,57.6328
1341304648334,57.4310
1341304708334,57.6948
1341304768334,57.5057
1341304828334,57.6330
1341304888334,57.5938
1341304948334,57.4771
1341305008334,57.5195
1341305068334,57.4932
1341305128333,57.7166
1341305188333,57.4977
1341305248333,57.4427
1341305308333,57.7006
1341305368334,57.6318
1341305428334,57.6690
1341305488334,57.5413
1341305548334,57.7185
1341305608334,57.7230
1341305668334,57.6829
1341305728334,57.6357
1341305788334,57.7693
1341305848334,57.7372
1341305908334,57.7349
1341305968334,57.7632
1341306028343,57.8111
1341306088343,57.8886
1341306148343,57.7914
1341306208343,57.8709
1341306268343,57.8634
1341306328343,57.9107
1341306388343,58.0405
1341306448343,57.8506
1341306508343,57.9236
1341306568343,57.8671
1341306628343,57.8540
1341306688343,57.9824
1341306748343,58.0081
1341306808343,58.1224
1341306868343,58.2933
1341306928343,57.9529
1341306988343,58.0539
1341307048343,58.1277
1341307108343,58.2312
1341307168343,58.1452
1341307228343,58.1759
1341307288343,58.2999
1341307348343,58.1300
1341307408343,58.2568
1341307468343,58.3252
1341307528343,58.2726
1341307588343,58.4096
1341307648343,58.2765
1341307708343,58.4361
1341307768343,58.2427
1341307828343,58.2811
1341307888343,58.2448
1341307948343,58.3200
1341308008343,58.2862
1341308068343,58.2132
1341308128343,58.2176
1341308188343,58.4046
1341308248343,58.0885
1341308308343,58.1269
1341308368343,58.1243
1341308428343,58.0098
1341308488343,58.0851
1341308548343,58.1081
1341308608343,58.0535
1341308668343,58.1541
1341308728343,58.0428
1341308788343,57.8775
1341308848343,57.9738
1341308908343,58.1577
1341308968343,58.0922
1341309028343,57.9276
1341309088343,57.9430
1341309148343,58.0592
1341309208343,58.1379
1341309268343,57.9798
1341309328343,58.1029
1341309388343,58.0084
1341309448343,58.0571
1341309508343,58.1212
1341309568343,58.1055
1341309628352,58.0843
1341309688352,58.1075
1341309748352,57.9931
1341309808352,58.1393
1341309868352,58.0953
1341309928352,57.9910
1341309988352,57.9574
1341310048352,57.9973
1341310108352,57.8781
1341310168352,58.0293
1341310228352,57.9551
1341310288352,57.9743
1341310348352,57.8106
1341310408352,57.8803
1341310468352,58.0777
1341310528352,57.9516
1341310588352,58.0094
1341310648352,57.8951
1341310708352,57.9031
1341310768352,58.1280
1341310828352,58.0336
1341310888352,57.9045
1341310948352,57.9747
1341311008352,57.9789
1341311068352,57.9858
1341311128352,58.0850
1341311188352,57.9122
1341311248352,57.8074
1341311308352,58.0185
1341311368352,57.8204
1341311428352,57.8474
1341311488352,57.7798
1341311548352,57.9132
1341311608352,57.7968
1341311668352,57.9698
1341311728352,57.9355
1341311788352,57.8106
1341311848352,58.0149
1341311908352,57.8199
1341311968352,57.8712
1341312028352,57.9618
1341312088352,57.9341
1341312148352,57.7565
1341312208352,57.8197
1341312268352,57.8340
1341312328352,57.7724
1341312388352,57.6524
1341312448352,57.9112
1341312508352,57.9145
1341312568352,57.8926
1341312628352,57.8834
1341312688352,58.0684
1341312748352,57.9608
1341312808352,57.8965
1341312868352,57.9733
1341312928352,57.7935
1341312988352,57.9191
1341313048352,57.8686
1341313108352,57.8298
1341313168352,57.8018
1341313228361,57.9243
1341313288361,57.8677
1341313348361,57.9520
1341313408361,57.7360
1341313468361,57.6729
1341313528361,57.9812
1341313588361,57.7961
1341313648361,57.8998
1341313708361,57.7946
1341313768361,57.7976
1341313828361,57.8521
1341313888361,57.8516
1341313948361,57.8883
1341314008361,57.7864
1341314068361,57.6732
1341314128361,57.8574
1341314188361,57.6804
1341314248361,57.7134
1341314308361,57.9431
1341314368361,57.6093
1341314428361,57.7690
1341314488361,57.4798
1341314548361,57.7531
1341314608361,57.8271
1341314668361,58.0084
1341314728361,58.0360
1341314788361,57.8165
1341314848361,57.7884
1341314908361,57.6506
1341314968361,57.5993
1341315028361,57.7364
1341315088361,57.8161
1341315148361,57.8434
1341315208361,57.5657
1341315268361,57.5103
1341315328361,57.6976
1341315388361,57.6446
1341315448361,57.9610
1341315508361,57.7913
1341315568361,57.6453
1341315628361,57.8983
1341315688361,57.7523
1341315748361,57.8212
1341315808361,57.9243
1341315868361,57.9687
1341315928361,57.8927
1341315988361,57.8079
1341316048361,57.7619
1341316108361,57.8839
1341316168361,57.6968
1341316228361,57.7870
1341316288361,57.8239
1341316348361,57.8614
1341316408361,57.7418
1341316468361,57.7308
1341316528361,57.8914
1341316588361,57.8569
1341316648361,57.7289
1341316708361,57.8006
1341316768361,57.6428
1341316828370,57.9520
1341316888370,57.9380
1341316948370,57.8623
1341317008370,57.7917
1341317068370,57.6951
1341317128370,57.6950
1341317188370,57.7762
1341317248370,57.8316
1341317308370,58.0395
1341317368370,58.0562
1341317428370,58.0397
1341317488370,57.7343
1341317548370,57.9789
1341317608370,58.0490
1341317668370,58.0745
1341317728370,58.0964
1341317788370,58.0315
1341317848370,57.9999
1341317908370,58.0222
1341317968370,57.9842
1341318028370,58.1741
1341318088370,57.9766
1341318148370,58.0669
1341318208370,57.7784
1341318268370,58.0269
1341318328370,58.0975
1341318388370,57.9603
1341318448370,57.9070
1341318508370,58.0683
1341318568370,57.9286
1341318628370,57.8097
1341318688370,58.0255
1341318748370,57.8937
1341318808370,57.8374
1341318868370,57.8958
1341318928370,57.9486
1341318988370,58.0882
1341319048370,57.9784
1341319108370,58.0625
1341319168370,57.9022
1341319228370,57.9101
1341319288370,57.8113
1341319348370,57.7918
1341319408370,58.1061
1341319468370,57.8986
1341319528370,57.9063
1341319588370,58.0450
1341319648370,57.8164
1341319708370,57.8845
1341319768370,57.7338
1341319828370,57.9337
1341319888370,58.0031
1341319948370,57.8731
1341320008370,57.9769
1341320068370,57.9589
1341320128370,57.9640
1341320188370,57.9127
1341320248370,57.9235
1341320308370,58.0229
1341320368370,57.9014
1341320428379,58.0930
1341320488379,58.0745
1341320548379,58.1131
1341320608379,58.1246
1341320668379,58.0590
1341320728379,58.2509
1341320788379,58.2648
1341320848379,58.0606
1341320908379,58.0165
1341320968379,58.0564
1341321028379,58.0618
1341321088379,58.0666
1341321148379,58.2209
1341321208379,58.0175
1341321268379,58.1095
1341321328379,58.1945
1341321388379,57.9297
1341321448379,58.2529
1341321508379,58.0690
1341321568379,58.1693
1341321628379,57.9981
1341321688379,58.1640
1341321748379,58.2034
1341321808379,58.2399
1341321868379,58.2455
1341321928379,58.2405
1341321988379,58.3466
1341322048379,58.1799
1341322108379,58.1079
1341322168379,58.1863
1341322228379,58.2432
1341322288379,58.2308
1341322348379,58.2262
1341322408379,58.4092
1341322468379,58.2584
1341322528379,58.2184
1341322588379,58.3175
1341322648379,58.1481
1341322708379,58.2293
1341322768379,58.3606
1341322828379,58.1914
1341322888379,58.2854
1341322948379,58.4333
1341323008379,58.4702
1341323068379,58.4729
1341323128379,58.2914
1341323188379,58.4100
1341323248379,58.4249
1341323308379,58.5774
1341323368379,58.6878
1341323428379,58.6651
1341323488379,58.7055
1341323548379,58.5524
1341323608379,58.3834
1341323668379,58.2418
1341323728379,58.5797
1341323788379,58.4525
1341323848379,58.5393
1341323908379,58.7301
1341323968379,58.5572
1341324028388,58.5236
1341324088388,58.4439
1341324148388,58.5163
1341324208388,58.4806
1341324268388,58.4122
1341324328388,58.4291
1341324388388,58.4565
1341324448388,58.5635
1341324508388,58.5422
1341324568388,58.4264
1341324628388,58.5352
1341324688388,58.4391
1341324748388,58.5943
1341324808388,58.4205
1341324868388,58.4384
1341324928388,58.2922
1341324988388,58.4014
1341325048388,58.5715
1341325108388,58.4543
1341325168388,58.3533
1341325228388,58.3827
1341325288388,58.4054
1341325348388,58.3580
1341325408388,58.4324
1341325468388,58.5280
1341325528388,58.5212
1341325588388,58.4885
1341325648388,58.5707
1341325708388,58.4181
1341325768388,58.4636
1341325828388,58.5966
1341325888388,58.7083
1341325948388,58.7562
1341326008388,58.5546
1341326068388,58.5517
1341326128388,58.6860
1341326188388,58.5925
1341326248388,58.8024
1341326308388,58.7662
1341326368388,58.6110
1341326428388,58.5177
1341326488388,58.8109
1341326548388,58.6244
1341326608388,58.6862
1341326668388,58.7684
1341326728388,58.7921
1341326788388,58.5672
1341326848388,58.5396
1341326908388,58.6835
1341326968388,58.5519
1341327028388,58.5538
1341327088388,58.4226
1341327148388,58.7839
1341327208388,58.7600
1341327268388,58.7281
1341327328388,58.8213
1341327388388,58.7372
1341327448388,58.8781
1341327508388,58.8443
1341327568388,58.7210
1341327628397,58.6162
1341327688397,58.7428
1341327748397,58.8692
1341327808397,58.7154
1341327868397,58.7236
1341327928397,58.8581
1341327988397,58.5104
1341328048397,58.6278
1341328108397,58.4511
1341328168397,58.4685
1341328228397,58.3347
1341328288397,58.5683
1341328348397,58.5148
1341328408397,58.4820
1341328468397,58.3923
1341328528397,58.4085
1341328588397,58.3256
1341328648397,58.3026
1341328708397,58.4774
1341328768397,58.4190
1341328828397,58.3624
1341328888397,58.2767
1341328948397,58.5460
1341329008397,58.4398
1341329068397,58.2941
1341329128397,58.4132
1341329188397,58.3573
1341329248397,58.1932
1341329308397,58.5743
1341329368397,58.3142
1341329428397,58.3466
1341329488397,58.3241
1341329548397,58.3826
1341329608397,58.1689
1341329668397,58.2520
1341329728397,58.2609
1341329788397,58.3022
1341329848397,58.3528
1341329908397,58.4804
1341329968397,58.2133
1341330028397,58.3653
1341330088397,58.3954
1341330148397,58.2059
1341330208397,58.5450
1341330268397,58.4761
1341330328397,58.5401
1341330388397,58.4602
1341330448397,58.6310
1341330508397,58.6660
1341330568397,58.6394
1341330628397,58.6248
1341330688397,58.6267
1341330748397,58.6018
1341330808397,58.5174
1341330868397,58.8657
1341330928397,58.7359
1341330988397,58.6832
1341331048397,58.7752
1341331108397,58.4935
1341331168397,58.7932
1341331228407,58.8000
1341331288407,58.7066
1341331348407,58.6565
1341331408407,58.7301
1341331468407,58.8532
1341331528407,58.5066
1341331588407,58.5643
1341331648407,58.6086
1341331708407,58.5410
1341331768407,58.4193
1341331828407,58.6302
1341331888407,58.5022
1341331948407,58.5364
1341332488407,58.7814
1341332548407,58.6703
1341332608407,58.7536
1341332668407,58.8370
1341332728407,58.8054
1341332788407,58.6939
1341332848407,58.8349
1341332908407,59.0755
1341332968407,58.9348
1341333028407,59.1588
1341333088407,58.8284
1341333148407,58.8351
1341333208407,58.8472
1341333268407,58.9552
1341333328407,58.8094
1341333388407,58.9706
1341333448407,59.0667
1341333508407,58.6876
1341333568407,58.8009
1341333628407,59.0418
1341333688407,58.9209
1341333748407,59.0925
1341333808407,59.0392
1341333868407,58.9692
1341333928407,59.0414
1341333988407,58.9844
1341334048407,59.0104
1341334108407,59.0772
1341334168407,59.1122
1341334228407,59.0041
1341334288407,59.0862
1341334348407,58.9258
1341334408407,59.1991
1341334468407,59.1918
1341334528407,59.2452
1341334588407,59.1716
1341334648407,59.2542
1341334708407,59.3339
1341334768407,59.4051
1341334828417,59.5841
1341334888417,59.7113
1341334948417,59.6265
1341335008417,59.4808
1341335068417,59.7336
1341335128417,59.4780
1341335188417,59.5955
1341335248417,59.6151
1341335308417,59.9262
1341335368417,59.6839
1341335428417,59.7115
1341335488417,59.6937
1341335548417,59.6055
1341335608417,59.8114
1341335668417,59.5224
1341335728417,59.5159
1341335788417,59.5465
1341335848417,59.4724
1341335908417,59.4051
1341335968417,59.4839
1341336028417,59.4032
1341336088417,59.5324
1341336148417,59.3639
1341336208417,59.2573
1341336268417,59.3659
1341336328417,59.2434
1341336388417,59.3284
1341336448417,59.3612
1341336508417,59.4418
1341336568417,59.2936
1341336628417,59.5131
1341336688417,59.3841
1341336748417,59.2179
1341336808417,59.3689
1341336868417,59.3327
1341336928417,59.4370
1341336988417,59.2852
1341337048417,59.3412
1341337108417,59.3373
1341337168417,59.3963
1341337228417,59.3598
1341337288417,59.4470
1341337348417,59.4020
1341337408417,59.6104
1341337468417,59.4013
1341337528417,59.4782
1341337588417,59.2604
1341337648417,59.5288
1341337708417,59.2438
1341337768417,59.2653
1341337828417,59.2289
1341337888417,59.3159
1341337948417,59.5301
1341338008417,59.3372
1341338068417,59.2215
1341338128417,59.3214
1341338188417,59.2505
1341338248417,59.0166
1341338308417,59.3144
1341338368417,59.3562
1341338428427,59.3679
1341338488427,59.4151
1341338548427,59.2453
1341338608427,59.1586
1341338668427,59.1579
1341338728427,58.9829
1341338788427,59.0380
1341338848427,59.0828
1341338908427,59.1443
1341338968427,59.1499
1341339028427,59.0490
1341339088427,59.0602
1341339148427,59.0906
1341339208427,59.1693
1341339268427,59.0095
1341339328427,58.8062
1341339388427,58.9704
1341339448427,59.0783